Regional Weather Roundup
Issued by NWS Wakefield, VA

Home | Current Version | Previous Version | Text Only | Print | Product List | Glossary On
Versions: 1 2 3 4 5 6 7 8 9 10 11 12 13 14 15 16 17 18 19 20 21 22 23 24 25 26 27 28
000
ASUS41 KAKQ 270515
RWRAKQ

REGIONAL WEATHER ROUNDUP
NATIONAL WEATHER SERVICE WAKEFIELD VA
100 AM EDT TUE SEP 27 2016

Note: "fair" indicates few or no clouds below 12,000 feet with no
significant weather and/or obstructions to visibility. * = Denotes
station may not report precipitation (e.g., rain,snow,etc.),
thunder or fog.

VAZ042-051-052>054-056-270600-
NORTHERN VIRGINIA

CITY           SKY/WX    TMP DP  RH WIND       PRES   REMARKS
WASH NATIONAL  CLOUDY    67  66  97 S5        29.96F
DULLES         LGT RAIN  64  63  96 S5        29.95F
FORT BELVOIR   CLOUDY    65  64  94 CALM      29.95F
QUANTICO       CLOUDY    66  63  88 SW3       29.97F
FREDERICKSBRG* MOCLDY    66  66 100 CALM      29.97R
STAFFORD*      MOCLDY    64  64 100 CALM      30.01S
WARRENTON      CLOUDY    65  61  85 S3        29.96F
CULPEPER*      CLOUDY    66  65  99 CALM      29.97F
MANASSAS*      CLOUDY    64  64 100 SE3       29.96F
LEESBURG*      LGT RAIN  64  64 100 CALM      29.96F
WINCHESTER     CLOUDY    66  64  94 W5        29.97R
FRONT ROYAL*   MOCLDY    64  64 100 SW6       29.95S
LURAY*         LGT RAIN N/A N/A N/A SW5       29.98S
$$

VAZ048-049-060>072-079>083-270600-
CENTRAL AND SOUTH CENTRAL VIRGINIA

CITY           SKY/WX    TMP DP  RH WIND       PRES   REMARKS
RICHMOND       CLOUDY    66  65  96 S8        29.98F
CHESTERFIELD*  MOCLDY    66  54  63 S6        29.99F
PETERSBURG*    CLOUDY   N/A N/A N/A CALM      30.00S
HANOVER        LGT RAIN  67  64  90 S6        29.99F
TAPPAHANNOCK*  LGT RAIN  67  67  99 S7        29.99F
QUINTON*       FAIR      66  65  97 CALM      29.98F
CHARLOTTSVILLE CLOUDY    66  64  93 S6        29.98S
GORDONSVILLE*  CLOUDY    64  64 100 SW5       29.98S
ORANGE*          N/A     64  64 100 CALM      29.99F
LOUISA*        PTCLDY    70  68  94 CALM      29.97F
BUMPASS*       FAIR      65  65 100 SW3       29.97F
FARMVILLE*     LGT RAIN  67  67  97 S3        29.97F
CREWE*         FAIR      67  67 100 S6        29.97F
FORT PICKETT*  FAIR      66  65  97 S8        29.99F
CHASE CITY*    FAIR      68  67  94 S3        30.00F
CLARKSVILLE*   FAIR      68  68 100 CALM      30.00F
SOUTH HILL*    CLOUDY    67  66  99 S7        30.07S
LAWRENCEVILLE* CLOUDY    67  66  97 CALM      30.00F
EMPORIA*       CLOUDY    68  64  88 CALM      30.02F
$$

VAZ088>098-270600-
SOUTHEAST VIRGINIA

CITY           SKY/WX    TMP DP  RH WIND       PRES   REMARKS
NORFOLK        CLOUDY    72  66  81 S8        30.00F
VIRGINIA BEACH MOCLDY    71  65  81 SW6       30.00F
NORFOLK NAVAL  CLOUDY    73  66  78 S7        30.01F
WEST POINT*    CLOUDY    68  64  87 SE3       29.99F
SALUDA*        CLOUDY    68  67  96 S3        29.99S
NEWPORT NEWS   CLOUDY    73  66  78 SW10      30.00F
LANGLEY AFB    MOCLDY    73  66  80 S7        29.99F
FORT EUSTIS    CLOUDY    73  66  80 S7        29.97F
WILLIAMSBURG*  CLOUDY    72  66  83 SW3       30.00F
HR EXEC AP*    MOCLDY    70  64  83 S5        30.02F
FRANKLIN*      CLOUDY    70  65  85 S6        30.01F
US460-WAKEFLD  CLOUDY    70  64  81 SW6       30.00F
$$

VAZ020-022-025-037-045-270600-
WEST CENTRAL AND SOUTHWEST VIRGINIA

CITY           SKY/WX    TMP DP  RH WIND       PRES   REMARKS
STAUNTON*      RAIN      63  62  97 CALM      30.01F
WAYNESBORO*    CLOUDY    63  62  96 CALM      30.01S
HOT SPRINGS VA FOG       51  51 100 W12       30.08S VSB<1/4
LYNCHBURG      CLOUDY    65  65 100 S6        30.01S
DANVILLE       LGT RAIN  67  66  97 SW7       30.02F
SOUTH BOSTON*  FAIR      67  65  95 CALM      30.01S
MARTINSVILLE   CLOUDY    66  65  96 CALM      30.05F
ROANOKE        CLOUDY    67  66  97 CALM      30.03S FOG
BLACKSBURG     CLOUDY    65  65 100 CALM      30.08S FOG
DUBLIN*        CLOUDY    65  65  98 CALM      30.07S
MARION*        CLOUDY    66  65  96 SW6       30.10F
HILLSVILLE*    CLOUDY    63  63 100 S3        30.08S FOG
RICHLANDS*     LGT RAIN  64  64 100 NW6       30.08S VSB 1
WISE*          FOG       63  63 100 NW5       30.11S VSB 1/2
ABINGDON*      CLOUDY    68  67  96 W3        30.07S
$$

MDZ021>025-VAZ099-100-270600-
SOUTHERN MARYLAND AND THE DELMARVA PENINSULA

CITY           SKY/WX    TMP DP  RH WIND       PRES   REMARKS
PATUXENT RIVER CLOUDY    69  62  78 SW9       29.97F
BAY BRIDGE APT CLOUDY    68  64  88 MISG      29.95F
LEONARDTOWN    CLOUDY    66  63  88 SW5       29.98F
DOVER          CLOUDY    68  68 100 SW5       29.95F
GEORGETOWN     CLOUDY    68  65  90 S8        29.97F
EASTON         NOT AVBL
CAMBRIDGE      CLOUDY    68  66  94 S3        29.96F
SALISBURY      CLOUDY    67  65  93 S8        29.97F
OCEAN CITY     LGT RAIN  72  69  90 SW6       29.99F
WALLOPS ISLAND LGT RAIN  73  69  87 S13       29.99F
ACCOMACK*      CLOUDY    71  66  84 S9        29.99F
$$

NCZ012>017-030>032-270600-
NORTH CENTRAL AND EASTERN NORTH CAROLINA

CITY           SKY/WX    TMP DP  RH WIND       PRES   REMARKS
ROANOKE RAPIDS FAIR      68  64  88 S3        30.01F
RALEIGH        CLOUDY    72  68  87 SW9       30.03F
ELIZABETH CITY MOCLDY    72  66  81 S5        30.02F
AHOSKIE*       PTCLDY    68  66  93 S5        30.01F
EDENTON*       CLOUDY    74  70  87 SW5       30.03F
CURRITUCK*     CLOUDY    71  67  88 CALM      30.03S
KILL DEVIL HLS CLOUDY    75  71  85 S6        30.01F
MANTEO         CLOUDY    76  67  74 S16       30.03F
CAPE HATTERAS  CLEAR     78  65  63 S14       30.03F
TARBORO*       MOCLDY    69  66  90 S5        30.02F
GOLDSBORO      PTCLDY    70  70 100 SE2       30.00F
WASHINGTON     PTCLDY    68  66  96 CALM      30.03F
GREENVILLE     MOCLDY    70  68  94 CALM      30.04F
NEW BERN       CLEAR     68  66  93 CALM      30.04F
WILMINGTON     CLOUDY    71  68  90 NE3       30.01F
$$

VAZ048-270600-
ELSEWHERE

CITY           SKY/WX    TMP DP  RH WIND       PRES   REMARKS
HARRISBURG PA  CLOUDY    63  62  97 CALM      29.94F
BALTIMORE      CLOUDY    64  61  90 CALM      29.95F
ANNAPOLIS      CLOUDY    66  63  90 VRB3      29.95F
ANDREWS AFB    CLOUDY    65  63  93 S7        29.95F
PHILADELPHIA   LGT RAIN  69  62  78 SW9       29.96F
HENDERSON NC   CLOUDY    67  64  90 S6        30.02S
GREENSBORO     LGT RAIN  68  68 100 S8        30.04S
ROCKY MOUNT    CLOUDY    70  67  90 S5        30.02F
$$

VAZ100-270600-
MARINE

STATION/POSITION TIME  TEMP    WIND        PRES    WAVE   SWELL
                       AIR SEA DIR/SP/G            HT/PER HT/PER
                 (UTC) (F)     (DEG/KT/KT) (MB)    (FT/S) (FT/S)
BRANDYWINE LGT   0400   70     200/ 16/ 19   N/A
CAPE MAY NJ      0400   71 72  190/  7/ 10 1015.1F
LEWES DE         0400   70 72  190/  6/  8 1015.3F
OCEAN-CITY-INLET 0400   73 73  220/ 16/ 19 1016.4F
WACHAPREAGUE VA  0400   74 74  200/  8/ 13 1016.1F
THOMAS POINT MD  0500   69 74  210/ 14/ 15 1015.6F
GOOSES REEF MD   0400   72 75  210/ 16/ 17 1015.4F   2/ 3
COVE POINT MD    0400   70     200/ 13/ 15 1015.7F
SOLOMONS ISLAND  0400   70 75  190/  7/  8   N/A
BISHOPS HEAD MD  0400   72 71  170/ 12/ 13 1015.7F
PINEY POINT MD   0400          210/ 12/ 14   N/A
POTOMAC MD       0400   72 75  220/ 12/ 14 1014.8F   1/ 2
CAMBRIDGE MD     0400   69 74  170/  4/  9 1014.1F
LEWISETTA VA     0400   71 74  220/  8/ 11 1015.0F
RAPPAHANNOCK LGT 0400          190/ 19/ 21 1016.4F
STINGRAY PT      0400   74 75  130/ 12/ 14 1015.9F   1/ 3
YORK RVR RNG VA  0400   74     210/ 14/ 16 1015.4F
YORKTOWN VA      0400   73 76  190/ 10/ 12 1015.5F
JAMESTOWN VA     0400   72 77  190/ 10/ 12   N/A
DOMINION TERM VA 0400   73     210/ 10/ 12 1016.3F
KIPTOPEKE VA     0400      76  200/ 14/ 15   N/A
CHES BAY BRIDGE  0400   74 76  170/ 10/ 13 1016.1F
CAPE HENRY VA    0400   72     170/  8/ 11   N/A
WILLOUBY STN VA  0400   74     220/ 12/ 13   N/A
CAPE HENRY BUOY  0412      76                N/A     3/ 4
1ST LANDING BUOY 0400   74 76  200/ 10/ 12 1016.3F   1/ 3
OFFSHORE WE BUOY 0451      75                N/A     3/ 5
64NM E OF VA BCH 0450   75 74  170/ 12/ 16 1016.4F   3/ 5   2/ 8
DUCK PIER NC     0400   76 76  170/  8/  9 1016.3F
44056 DUCK FRF   0411      76                N/A     3/ 7
OREGON INLET NC  0400   76 76  160/  9/ 12 1017.1F
HATTERAS NC      0400   78 78  160/ 12/ 14 1016.9F
DIAMOND SHLS NC  0450   79 85  160/ 16/ 19 1016.7F   4/ 7   2/ 9
CAPE LOOKOUT NC  0400   78     160/  6/  7 1016.6F
$$




USA.gov is the U.S. government's official web portal to all federal, state and local government web resources and services.